Regional Weather Roundup
Issued by NWS

Home | Current Version | Previous Version | Graphics & Text | Print | Product List | Glossary On
Versions: 1 2 3 4 5 6 7 8 9 10 11 12 13 14 15 16 17 18 19 20 21 22 23 24 25 26 27 28 29 30 31 32 33 34 35 36 37 38 39 40 41 42 43 44 45 46 47 48 49 50
000
ASUS43 KFSD 280210
RWRSD

WEATHER ROUNDUP FOR SOUTH DAKOTA
NATIONAL WEATHER SERVICE SIOUX FALLS SD
900 PM CDT WED APR 27 2016

NOTE: "FAIR" INDICATES FEW OR NO CLOUDS BELOW 12,000 FEET WITH NO
SIGNIFICANT WEATHER AND/OR OBSTRUCTIONS TO VISIBILITY.


SDZ001>005-009-010-012>017-280300-
NORTHWEST AND NORTH CENTRAL SOUTH DAKOTA

CITY           SKY/WX    TMP DP  RH WIND       PRES   REMARKS
BUFFALO          N/A     33  31  92 NE16      29.89R WCI  23
FAITH            N/A     32  30  92 NE13      29.91R WCI  22
MOBRIDGE       LGT RAIN  38  35  89 NE16      29.88S FOG
$$

SDZ012>016-024>037-041>051-057-063-072>074-280300-
SOUTHWEST AND SOUTH CENTRAL SOUTH DAKOTA

CITY           SKY/WX    TMP DP  RH WIND       PRES   REMARKS
RAPID CTY ARPT LGT SNOW  32  31  96 N21       29.88R FOG     WCI  20
PIERRE         CLOUDY    37  35  92 NE15      29.83R
CUSTER         LGT SNOW  28  24  85 NE7       29.81R VSB 1   WCI  21
ELLSWORTH AFB  LGT SNOW  32  32 100 N20G25    29.88  VSB 1   WCI  20
PHILIP         MIX PCPN  33  32  96 N13       29.86R WCI  24
PINE RIDGE     LGT SNOW  32  29  88 N14G22    29.84R FOG     WCI  22
WINNER         LGT RAIN  40  36  86 N12       29.78R
$$

SDZ004>011-016>023-039-040-280300-
NORTHEAST SOUTH DAKOTA

CITY           SKY/WX    TMP DP  RH WIND       PRES   REMARKS
ABERDEEN       LGT RAIN  40  36  86 NE12      29.89R
WATERTOWN      CLOUDY    40  36  86 E18G26    29.80S
BROOKINGS      CLOUDY    40  37  89 E18G29    29.75R
SISSETON         N/A     39  34  82 E20       29.90R
$$

SDZ017-020-022-023-036>040-048>070-280300-
SOUTHEAST SOUTH DAKOTA

CITY           SKY/WX    TMP DP  RH WIND       PRES   REMARKS
SIOUX FALLS    CLOUDY    42  38  85 E21G26    29.72R
HURON          RAIN      40  39  97 E9        29.80R FOG
CHAMBERLAIN    CLOUDY    41  40  95 NE10G16   29.78R
MITCHELL       LGT RAIN  42  40  92 E14       29.75R
YANKTON        CLOUDY    45  39  81 NE20      29.67R
$$

ABBREVIATIONS USED IN REMARKS
   TC - TEMPERATURE IN CELSIUS
  WCI - WIND CHILL INDEX
   HX - HEAT INDEX
  VSB - VISIBILITY





USA.gov is the U.S. government's official web portal to all federal, state and local government web resources and services.